Simultaneous Nadir Overpasses (SNOs) Predictions

Prediction of SNOs between NOAA-20 and METOP-C Satellite Orbit:

Table of predicted SNOs for the next 14.0 days since TLE Epoch: 7/12/2019
Index Date (NOAA-20) Time (NOAA-20) Lat,Lon (NOAA-20) SZA (NOAA-20 ) Date (METOP-C) Time (METOP-C) Lat,Lon (METOP-C) SZA (METOP-C ) Distance(km) Time Diff (sec)
1 07/15/2019 18:49:05 -73.49, 67.95 127.71 07/15/2019 18:50:11 -73.45, 70.99 127.93 96.33 66
2 07/15/2019 19:39:47 73.28,-124.29 52.07 07/15/2019 19:40:55 73.26,-122.10 51.91 70.10 68
3 07/15/2019 20:30:29 -73.19, 43.23 128.03 07/15/2019 20:31:39 -73.13, 44.94 128.20 55.47 70
4 07/15/2019 21:21:11 72.99,-149.02 51.76 07/15/2019 21:22:23 72.94,-148.14 51.64 29.20 72
5 07/15/2019 22:11:53 -72.90, 18.49 128.34 07/15/2019 22:13:06 -72.86, 19.01 128.43 17.82 73
6 07/15/2019 23:02:36 72.74,-173.88 51.50 07/15/2019 23:03:48 72.77,-173.84 51.50 2.83 72
7 07/15/2019 23:53:20 -72.75, -6.58 128.49 07/15/2019 23:54:30 -72.74, -6.58 128.52 2.00 70
8 07/16/2019 00:44:06 72.75, 160.73 51.52 07/16/2019 00:45:10 72.75, 160.77 51.49 1.43 64
9 07/16/2019 01:34:49 -72.71, -31.87 128.53 07/16/2019 01:35:52 -72.72, -31.96 128.53 3.12 63
10 07/16/2019 02:25:35 72.71, 135.45 51.48 07/16/2019 02:26:32 72.73, 135.39 51.49 2.83 57
11 07/16/2019 03:16:19 -72.72, -57.26 128.51 07/16/2019 03:17:13 -72.75, -57.24 128.49 3.20 54
12 07/16/2019 04:07:05 72.71, 110.06 51.50 07/16/2019 04:07:54 72.71, 110.01 51.48 1.93 49
13 07/16/2019 04:57:49 -72.72, -82.65 128.49 07/16/2019 04:58:35 -72.73, -82.62 128.50 0.83 46
14 07/16/2019 05:48:35 72.72, 84.67 51.52 07/16/2019 05:49:15 72.74, 84.73 51.52 2.59 40
15 07/16/2019 06:39:19 -72.73,-108.03 128.47 07/16/2019 06:39:57 -72.71,-108.00 128.51 3.15 38
16 07/16/2019 07:30:05 72.73, 59.28 51.54 07/16/2019 07:30:37 72.71, 59.35 51.51 2.68 32
17 07/16/2019 08:20:48 -72.69,-133.32 128.51 07/16/2019 08:21:19 -72.68,-133.38 128.51 2.21 31
18 07/16/2019 09:11:34 72.68, 34.00 51.50 07/16/2019 09:11:59 72.69, 33.97 51.51 1.50 25
19 07/16/2019 10:02:18 -72.70,-158.71 128.49 07/16/2019 10:02:40 -72.71,-158.66 128.47 2.64 22
20 07/16/2019 10:53:04 72.69, 8.61 51.52 07/16/2019 10:53:21 72.67, 8.59 51.50 2.09 17
21 07/16/2019 11:43:48 -72.70, 175.90 128.47 07/16/2019 11:44:02 -72.69, 175.96 128.48 1.93 14
22 07/16/2019 12:34:34 72.70, -16.78 51.54 07/16/2019 12:34:42 72.70, -16.69 51.54 3.00 8
23 07/16/2019 13:25:17 -72.66, 150.62 128.50 07/16/2019 13:25:24 -72.67, 150.57 128.49 2.25 7
24 07/16/2019 14:16:03 72.65, -42.06 51.50 07/16/2019 14:16:04 72.68, -42.07 51.53 3.23 1
25 07/16/2019 15:06:47 -72.67, 125.23 128.48 07/16/2019 15:06:46 -72.65, 125.19 128.49 1.87 1
26 07/16/2019 15:57:33 72.66, -67.45 51.52 07/16/2019 15:57:26 72.66, -67.46 51.53 0.16 7
27 07/16/2019 16:48:17 -72.67, 99.84 128.46 07/16/2019 16:48:07 -72.68, 99.91 128.46 2.69 10
28 07/16/2019 17:39:03 72.67, -92.84 51.54 07/16/2019 17:38:48 72.64, -92.84 51.52 2.93 15
29 07/16/2019 18:29:47 -72.68, 74.45 128.44 07/16/2019 18:29:29 -72.66, 74.53 128.46 3.22 18
30 07/16/2019 19:20:32 72.63,-118.13 51.51 07/16/2019 19:20:10 72.62,-118.22 51.51 3.07 22
31 07/16/2019 20:11:16 -72.64, 49.17 128.48 07/16/2019 20:10:51 -72.64, 49.15 128.47 0.92 25
32 07/16/2019 21:02:02 72.63,-143.52 51.52 07/16/2019 21:01:31 72.65,-143.50 51.55 2.33 31
33 07/16/2019 21:52:46 -72.64, 23.78 128.46 07/16/2019 21:52:13 -72.62, 23.77 128.47 2.37 33
34 07/16/2019 22:43:32 72.64,-168.90 51.54 07/16/2019 22:42:53 72.63,-168.88 51.54 1.20 39
35 07/16/2019 23:34:16 -72.65, -1.61 128.44 07/16/2019 23:33:34 -72.65, -1.51 128.44 3.32 42
36 07/17/2019 00:25:01 72.60, 165.81 51.51 07/17/2019 00:24:15 72.61, 165.74 51.54 2.92 46
37 07/17/2019 01:15:45 -72.61, -26.89 128.48 07/17/2019 01:14:56 -72.63, -26.89 128.44 2.81 49
38 07/17/2019 02:06:31 72.60, 140.42 51.53 07/17/2019 02:05:37 72.59, 140.36 51.53 2.49 54
39 07/17/2019 02:57:15 -72.61, -52.28 128.46 07/17/2019 02:56:18 -72.61, -52.27 128.45 0.43 57
40 07/17/2019 03:48:01 72.61, 115.03 51.55 07/17/2019 03:46:58 72.62, 115.08 51.57 2.02 63
41 07/17/2019 04:38:45 -72.62, -77.67 128.44 07/17/2019 04:37:40 -72.59, -77.65 128.45 3.37 65
42 07/17/2019 05:29:31 72.62, 89.64 51.57 07/17/2019 05:28:20 72.60, 89.70 51.57 2.57 71
43 07/17/2019 06:20:14 -72.58,-102.96 128.48 07/17/2019 06:19:02 -72.57,-103.04 128.46 2.72 72
44 07/17/2019 07:10:58 72.47, 64.56 51.42 07/17/2019 07:09:44 72.48, 64.11 51.47 15.18 74
45 07/17/2019 08:01:40 -72.38,-127.94 128.68 07/17/2019 08:00:27 -72.40,-128.72 128.60 26.44 73
46 07/17/2019 08:52:22 72.17, 39.78 51.10 07/17/2019 08:51:12 72.15, 38.13 51.20 56.28 70
47 07/17/2019 09:43:04 -72.08,-152.73 128.99 07/17/2019 09:41:55 -72.07,-154.70 128.87 67.32 69
48 07/17/2019 10:33:45 71.82, 15.07 50.73 07/17/2019 10:32:39 71.87, 12.26 50.98 97.51 66




NCC Satellite Simultaneous Nadir Overpasses (SNOs) Prediction Service
